Wind_Speed
4 3 4 5 6 7 9 11 12 11 9 10 8 6 12 7 4 6 5 8 10 6 4 6 4 4 7 8 8 7 5 4 5 4 8 8 8 9 8 9 11 9 8 16 21 21 22 23 21 25 28 27 27 26 26 27 25 26 27 27 26 24 23 21 20 20 20 19 17 17 16 15 18 23 21 19 19 16 14 16 16 16 16 15 13 10
5 4 5 7 9 10 11 12 12 11 11 12 7 6 11 8 6 7 8 10 7 4 2 3 4 4 4 4 4 2 2 2 2 2 6 8 8 10 9 10 12 8 8 15 17 18 22 23 22 26 26 27 28 26 27 27 26 27 27 27 26 25 25 22 21 22 20 19 18 17 16 14 17 21 20 19 19 16 14 15 15 14 14 15 13 11
5 4 7 9 9 10 11 11 10 11 11 9 5 3 7 7 8 5 7 10 7 3 1 4 4 3 1 1 3 5 2 3 2 3 3 2 4 8 9 10 11 9 8 12 13 15 21 24 24 24 24 28 29 26 26 27 26 27 26 27 26 25 25 23 22 21 18 18 18 17 17 16 17 17 17 19 19 15 13 15 14 12 13 15 14 12
4 6 9 10 8 9 10 11 10 10 8 5 5 1 6 9 9 5 5 8 5 2 5 6 3 1 3 2 2 3 2 6 4 5 5 3 2 3 7 10 11 10 9 12 12 12 18 24 23 22 24 28 29 26 26 26 26 26 25 26 26 24 25 24 22 19 17 18 18 17 18 18 18 15 14 18 18 14 14 14 13 12 11 13 13 13
6 7 11 11 10 9 9 9 10 8 4 5 7 3 7 11 7 7 9 9 4 2 7 8 2 2 2 4 3 2 3 6 5 5 6 5 4 5 4 9 13 10 9 12 12 11 15 20 22 23 25 27 27 26 26 26 25 25 25 26 25 23 23 22 22 20 18 19 18 17 19 18 16 15 14 19 19 16 14 14 14 13 11 11 12 12
8 8 10 12 10 9 8 8 9 7 4 4 7 6 9 14 10 11 14 10 4 2 7 9 3 1 3 6 7 4 3 5 3 4 6 6 5 5 4 6 11 10 9 11 10 11 14 18 21 23 25 26 26 26 27 26 24 24 26 26 25 24 23 22 21 20 19 19 18 19 20 17 16 17 18 20 21 18 16 16 15 14 12 12 11 11
4 7 5 8 10 11 9 7 7 7 4 3 6 6 10 18 14 15 16 10 4 3 8 10 4 1 2 5 8 8 6 7 4 5 7 6 6 5 4 5 8 9 9 9 9 10 13 18 21 21 23 26 26 26 27 26 25 25 26 26 25 24 24 23 21 20 20 18 19 20 19 18 18 18 19 20 20 18 16 16 15 14 13 14 12 11
4 8 8 7 7 9 7 5 7 6 4 4 4 2 13 20 17 18 16 9 5 4 7 11 5 3 2 4 8 10 8 8 7 7 8 7 6 6 5 5 7 9 10 9 9 10 12 18 21 20 22 26 27 27 27 27 28 28 27 26 25 24 23 24 22 21 20 19 20 21 18 19 19 18 19 20 18 17 17 17 15 13 14 16 13 11
6 7 7 9 7 4 4 6 7 6 4 5 6 4 6 14 16 19 14 6 5 6 5 9 7 2 1 3 7 10 10 10 12 12 11 9 8 7 7 6 6 7 10 10 9 10 12 18 23 22 22 24 27 28 26 27 30 29 28 27 25 23 24 24 23 22 21 19 20 20 19 18 17 17 18 19 17 15 16 18 15 13 14 14 13 12
2 3 7 9 6 3 5 5 4 3 3 3 5 9 7 5 7 11 9 4 5 5 4 11 11 3 1 4 7 8 8 11 13 12 11 10 10 9 8 7 7 6 9 10 9 11 14 20 24 23 23 24 27 28 26 28 31 30 29 28 26 24 24 24 23 22 22 20 20 20 19 17 16 17 18 19 18 15 16 17 15 15 15 13 12 13
5 5 6 4 2 1 5 5 2 4 5 3 4 8 7 4 1 1 3 4 4 1 5 14 16 7 2 4 7 8 10 13 13 10 11 11 11 11 9 8 8 6 8 10 9 10 15 22 26 25 24 24 26 28 27 29 32 31 30 28 26 24 24 25 24 23 23 22 20 20 19 18 16 18 19 19 19 17 16 18 16 16 16 14 13 14
8 4 1 2 1 3 6 6 4 5 6 3 4 4 3 3 3 4 2 3 3 3 4 11 18 11 3 3 9 11 11 13 15 13 15 15 12 12 10 9 8 6 7 10 9 8 11 17 22 25 25 23 26 28 27 30 33 31 30 29 27 25 25 26 25 23 23 22 22 20 19 19 17 19 21 20 19 19 18 18 18 16 15 15 14 13
5 3 2 5 3 2 4 5 4 5 5 5 5 1 2 3 2 2 2 2 1 4 7 7 12 8 4 4 11 15 12 11 15 15 16 16 14 13 12 10 9 5 6 8 9 8 8 11 16 22 24 22 25 28 27 30 32 31 30 30 28 26 26 27 25 24 23 22 23 20 18 19 18 19 22 21 20 20 20 19 18 18 16 16 15 14
2 3 5 6 4 3 5 3 3 4 3 5 4 2 2 0 1 2 2 2 4 5 9 9 7 4 3 2 8 16 14 11 13 14 15 16 15 14 12 11 8 5 5 6 9 10 7 10 15 19 23 21 24 27 26 29 31 30 30 30 29 27 27 27 26 25 23 23 23 20 18 19 19 20 21 20 20 20 19 18 18 19 18 17 16 16
4 3 3 3 4 6 7 7 6 4 1 3 4 3 3 3 2 2 2 2 4 3 6 8 5 3 3 2 5 12 11 10 11 11 14 15 14 13 11 9 7 6 5 4 8 11 8 12 17 19 21 21 25 27 25 29 31 30 31 30 29 28 28 28 27 25 24 23 22 20 19 20 19 20 21 19 19 18 18 18 17 18 17 16 17 16
4 4 6 6 5 10 9 9 7 5 4 4 4 4 3 4 2 3 4 4 3 1 3 2 1 1 2 1 2 9 9 9 11 11 13 14 14 13 11 11 9 7 6 5 6 10 11 15 20 21 21 21 25 26 26 30 31 30 32 31 29 29 29 28 27 26 25 24 23 21 21 21 18 20 20 19 19 18 17 17 16 17 16 15 15 15
2 5 9 7 7 10 8 7 5 4 4 3 3 5 5 5 3 3 4 5 3 1 2 3 3 1 1 3 2 8 9 9 11 12 13 14 15 15 13 13 12 10 9 7 6 7 11 16 20 23 24 23 25 25 27 32 32 31 32 31 29 28 29 28 27 27 26 24 23 22 22 22 19 19 20 19 19 19 18 17 16 16 17 16 15 14
2 5 9 8 5 6 7 6 6 6 6 3 1 2 4 3 3 2 1 4 4 2 2 5 7 3 2 0 2 7 9 10 11 12 13 14 15 15 14 14 14 13 11 9 8 6 8 15 20 23 26 27 27 25 29 33 33 32 33 32 30 28 28 29 27 26 26 25 25 24 23 23 21 20 19 19 19 18 18 18 17 17 18 17 16 15
3 4 8 8 6 1 4 4 3 5 7 3 2 4 1 2 2 1 1 2 2 2 3 4 5 2 1 0 4 7 8 10 11 11 13 14 14 14 13 14 15 14 12 10 9 6 5 12 20 23 25 28 28 25 29 34 33 32 33 32 31 29 28 28 27 26 26 25 25 25 24 24 22 20 19 18 18 18 19 19 18 17 18 17 17 16
4 2 5 7 12 9 3 2 2 3 6 3 3 5 3 3 4 4 3 3 2 2 1 3 3 2 2 4 3 6 7 9 10 10 11 12 13 11 10 12 13 14 12 10 9 6 4 9 20 24 24 28 29 25 28 33 33 32 32 31 31 29 27 27 26 26 26 26 24 24 25 24 23 21 19 19 19 19 19 19 19 18 17 17 16 16
4 3 3 7 11 8 4 4 5 5 6 3 1 4 5 2 2 3 3 3 3 3 2 2 0 1 1 5 4 1 3 5 7 8 8 9 11 10 10 10 10 11 11 9 7 6 3 5 15 24 27 29 28 25 28 32 33 33 32 30 30 29 28 27 26 26 27 26 24 23 25 24 23 22 20 19 20 21 20 19 19 18 17 17 16 16
3 2 3 4 6 6 6 9 11 10 9 6 2 4 6 3 1 2 2 3 3 3 3 4 3 1 2 4 5 4 4 5 4 3 3 6 7 6 7 10 10 9 10 9 7 5 3 4 2 10 20 28 27 24 27 31 32 33 31 30 30 30 29 28 27 27 27 26 24 23 24 24 23 23 21 18 19 21 21 20 20 18 17 18 18 15
3 1 2 3 4 5 8 13 14 12 11 9 5 5 6 4 3 3 2 5 4 4 5 3 5 1 2 3 4 4 4 6 7 6 3 1 3 2 1 2 5 5 4 5 5 6 8 8 10 9 2 17 24 24 26 29 31 33 32 30 31 31 31 29 28 28 28 26 25 24 24 24 23 23 22 20 19 20 19 20 21 20 18 18 17 15
4 2 3 4 4 5 8 12 13 10 8 7 7 7 5 4 5 3 3 3 0 2 3 2 3 1 2 4 4 4 5 5 6 7 6 5 4 4 5 7 6 4 4 4 5 8 11 5 3 5 2 9 18 23 25 26 27 30 32 30 30 32 32 30 28 29 29 27 26 25 25 25 23 23 23 21 20 20 19 19 21 21 21 19 17 16
3 2 3 3 4 5 6 8 9 8 8 5 7 11 7 6 9 9 5 1 4 4 3 5 1 2 1 4 5 4 5 5 7 7 6 6 6 5 6 6 6 5 4 4 4 7 10 8 8 10 11 12 17 22 24 25 25 27 29 28 29 31 32 30 27 29 30 28 26 26 25 24 24 23 24 23 22 21 20 20 20 22 23 21 19 17
2 2 2 2 2 2 1 3 4 5 6 5 8 11 8 9 12 8 3 3 4 4 5 5 2 0 1 4 6 5 4 5 6 5 5 6 6 5 4 3 5 5 5 6 6 5 4 5 8 12 14 13 19 21 22 23 24 26 27 26 26 27 30 28 24 27 32 29 27 27 26 25 25 24 23 23 22 21 20 20 21 22 22 22 20 19
1 2 3 2 3 3 5 5 7 7 6 7 11 12 9 11 14 9 3 3 3 3 5 4 7 5 1 3 6 5 4 3 3 3 4 6 6 4 1 1 4 6 6 6 6 5 2 2 6 11 14 16 20 22 22 21 22 24 24 24 24 24 26 25 20 22 29 29 26 25 25 23 23 24 24 24 22 22 21 21 22 22 24 24 21 20
1 1 5 5 5 6 8 9 9 9 7 9 12 13 10 9 11 9 7 8 5 6 4 2 6 8 4 2 4 6 3 1 3 5 5 6 6 5 5 4 5 6 6 5 4 4 3 2 1 4 11 17 19 20 19 17 16 17 17 18 20 20 20 20 18 16 19 22 23 22 22 21 18 16 19 22 22 22 20 19 20 21 24 25 23 22
2 1 5 6 8 8 6 7 8 6 6 9 11 11 11 10 10 8 9 12 11 8 3 3 5 10 6 1 4 7 4 3 6 6 5 5 5 6 8 7 5 5 6 5 4 4 5 4 4 5 1 8 15 19 20 19 19 17 15 14 16 16 15 15 15 14 12 13 13 12 11 11 12 10 10 13 16 18 16 12 12 13 17 23 24 23
2 1 4 6 9 10 9 9 6 5 3 7 9 10 13 13 14 12 11 12 11 10 8 5 9 12 8 4 4 6 6 6 6 6 5 6 6 7 8 9 8 6 3 2 4 4 3 4 4 7 10 11 9 11 12 11 14 17 18 16 14 12 11 10 10 10 11 8 6 5 1 5 2 3 5 6 8 12 12 9 6 6 10 17 21 20
2 1 4 4 5 6 9 10 7 4 4 3 5 10 12 13 14 14 12 11 10 10 11 10 8 7 6 6 5 5 8 8 8 9 7 5 6 7 6 6 6 6 6 6 4 2 4 5 7 8 11 14 14 13 12 10 7 7 8 10 10 9 8 7 5 5 6 4 4 9 8 4 3 2 5 6 7 9 10 8 6 6 7 12 15 15
1 1 3 4 3 4 8 9 8 6 2 3 6 10 11 10 10 10 9 9 8 8 9 10 6 3 3 5 7 7 8 8 8 9 7 4 5 6 4 4 5 5 7 7 7 5 6 6 6 8 11 15 14 13 11 9 9 10 8 4 3 5 5 5 5 6 4 1 1 8 12 11 10 12 12 11 8 9 11 9 7 6 6 8 10 12
1 1 1 1 2 4 7 8 8 4 2 4 2 4 7 8 7 8 8 9 9 6 6 5 1 2 3 5 8 9 9 7 6 7 8 6 5 5 5 7 9 8 8 8 6 6 7 8 8 10 13 16 17 16 15 13 14 15 10 3 2 2 3 3 3 3 3 2 2 6 10 13 17 19 17 14 10 10 12 12 12 10 7 7 8 9
1 2 1 2 1 3 7 8 6 3 4 1 3 1 5 5 8 10 9 9 10 7 4 3 2 2 4 7 9 10 9 8 8 8 9 8 5 5 7 9 9 8 8 8 7 7 8 11 11 12 15 18 17 16 15 12 13 16 13 9 6 3 1 2 1 2 3 4 6 8 11 14 17 18 15 13 12 11 12 13 14 12 9 8 7 6
3 3 2 2 1 2 5 6 4 3 1 1 4 4 5 7 11 12 10 10 10 9 6 6 6 6 7 7 7 8 9 8 9 10 11 11 8 7 8 9 9 8 8 8 8 9 11 12 11 11 14 15 13 14 16 15 14 16 15 13 13 13 9 5 3 3 4 7 9 12 14 15 15 15 13 12 13 14 14 14 15 13 11 10 9 7
2 2 2 2 1 0 2 3 1 1 3 4 6 8 8 7 7 7 8 10 11 9 8 8 9 8 7 5 4 3 5 7 9 10 11 11 10 9 9 10 9 8 8 9 9 10 12 13 13 13 14 15 16 17 17 17 18 19 20 18 17 16 13 9 7 5 4 5 6 8 11 12 13 13 11 11 12 12 13 13 14 14 14 15 14 12
4 2 1 1 2 0 2 1 2 2 3 5 5 7 8 7 5 3 6 5 10 10 9 8 9 9 7 4 3 3 3 4 6 8 11 10 8 10 11 11 11 10 11 14 16 16 16 15 14 13 13 14 18 19 19 20 21 23 23 22 20 18 16 15 13 10 6 5 5 5 5 6 7 9 9 10 10 11 11 12 12 13 14 15 16 16
5 2 1 2 1 0 1 0 2 3 0 3 4 9 9 8 8 5 6 2 8 10 10 8 8 8 7 6 3 1 1 4 5 6 10 11 7 9 11 13 14 15 15 16 19 22 23 22 20 19 17 17 17 18 18 19 21 23 23 23 22 21 21 20 18 15 11 9 7 6 5 4 3 4 5 6 6 6 8 9 10 12 13 13 13 13
3 4 4 3 1 2 2 1 2 2 2 4 6 9 8 8 9 6 5 2 6 7 8 7 6 6 5 5 4 3 4 4 3 2 5 8 7 10 10 11 14 16 16 17 19 20 21 22 23 24 23 22 21 20 19 18 20 21 22 21 22 22 21 21 19 16 15 13 10 9 8 6 6 5 3 2 1 0 1 3 4 6 8 11 11 11
1 1 3 2 3 3 0 1 2 2 1 3 6 7 7 7 6 5 4 1 5 6 6 5 5 4 4 4 3 3 3 4 4 4 2 0 4 11 12 9 11 14 15 16 18 20 21 22 23 23 22 21 21 22 23 23 23 22 21 21 21 21 19 18 18 17 16 15 12 11 10 9 8 7 6 5 4 2 2 2 1 2 5 7 8 9
2 1 1 0 2 3 3 3 2 2 1 4 5 7 8 5 4 5 2 3 2 5 5 4 4 4 3 3 3 1 2 4 6 6 5 3 3 9 13 13 14 15 16 17 18 20 21 22 22 22 22 21 21 22 23 25 26 24 21 20 19 18 16 15 16 16 16 15 15 13 12 11 10 8 6 5 3 1 2 3 2 3 4 5 5 6
2 2 2 3 3 2 3 3 2 2 2 5 4 7 8 4 3 3 2 3 3 4 3 4 3 4 4 4 3 4 5 7 8 7 5 4 4 7 10 13 14 16 17 18 19 19 20 20 20 20 20 19 20 20 21 24 25 23 21 20 17 14 12 13 15 15 14 14 15 16 15 12 10 9 9 8 6 3 3 2 1 2 4 6 7 8
1 1 2 2 2 1 3 3 2 1 3 5 4 6 7 3 3 3 2 4 5 4 3 3 3 4 6 5 5 6 7 8 8 7 6 6 6 8 10 12 13 14 15 16 17 17 18 18 18 18 17 17 18 18 19 21 22 21 20 20 17 13 11 11 13 14 14 14 13 14 15 13 12 10 11 12 11 9 8 6 4 4 5 6 8 10
1 1 1 1 1 1 3 2 2 3 3 6 5 4 3 3 4 3 4 5 4 3 3 3 4 4 5 6 6 6 6 6 7 7 7 6 6 8 10 12 14 15 15 16 16 16 18 18 16 16 15 16 17 16 17 19 20 19 18 17 15 14 13 13 12 12 12 12 11 10 11 13 13 13 12 12 12 12 12 12 11 10 7 5 7 9
1 1 2 1 2 2 3 3 4 5 5 5 5 5 5 6 6 6 6 5 4 3 2 2 3 4 5 6 6 6 5 6 6 6 7 6 6 8 10 11 13 14 15 15 16 16 17 17 16 15 15 14 15 15 16 17 17 16 15 13 13 14 15 14 14 13 12 11 10 9 10 12 14 15 15 14 13 15 16 16 15 15 15 12 8 7
0 1 1 2 3 4 4 4 5 6 6 6 6 6 7 7 6 6 6 5 4 4 3 4 4 4 4 5 5 5 5 5 6 6 7 7 6 7 9 10 11 12 12 12 13 13 14 14 14 13 13 13 14 15 14 15 15 14 12 10 11 13 14 14 16 15 13 11 10 8 8 9 10 11 14 15 15 16 17 17 16 17 18 18 17 12
2 2 1 2 4 4 3 3 5 7 7 6 6 6 6 7 6 5 5 5 4 4 4 5 5 4 4 5 5 5 5 5 5 6 7 7 6 8 9 9 9 9 9 9 9 10 12 13 12 12 12 12 12 12 13 13 13 12 11 11 11 11 12 13 14 14 12 11 11 10 10 8 6 7 8 11 13 15 17 17 17 18 21 21 20 18
1 1 2 3 3 4 3 2 5 8 7 5 5 5 5 6 6 5 5 5 5 5 4 5 5 5 5 4 5 5 5 5 5 5 6 6 7 9 11 10 9 9 8 7 7 7 9 11 11 10 10 11 11 11 12 11 10 9 10 10 10 10 11 11 11 11 11 10 9 12 13 11 10 8 7 7 7 8 12 15 15 15 17 18 18 17
2 1 3 5 4 4 3 2 5 7 6 5 6 5 5 5 5 5 5 6 6 6 5 5 5 6 6 5 5 5 5 5 5 5 5 5 7 10 13 13 12 11 10 8 7 7 7 8 8 8 7 7 9 10 10 10 9 8 8 7 8 9 9 8 7 7 9 10 10 11 12 12 12 11 9 8 7 6 8 12 12 11 10 11 14 15
3 1 1 5 4 3 2 2 4 5 3 3 4 4 4 5 5 5 5 6 6 5 5 5 5 6 6 5 6 6 5 5 6 6 5 5 8 13 14 14 13 12 11 9 7 7 7 7 7 7 6 5 6 7 7 8 8 8 6 5 5 5 5 6 7 6 5 6 9 13 13 13 14 13 10 10 10 10 9 10 10 9 9 10 12 13
2 0 1 4 4 3 4 4 5 5 4 4 4 3 3 5 5 5 5 5 5 5 6 5 4 3 4 4 4 6 6 6 8 8 4 3 7 13 15 14 13 12 11 10 9 9 9 8 7 7 6 4 4 5 5 5 6 5 4 2 3 4 6 9 10 9 6 5 7 11 11 10 12 13 11 9 9 9 8 8 9 9 10 12 13 13
Wind_Direction
190 202 210 209 227 229 223 227 239 259 269 269 269 150 145 149 155 186 163 151 159 150 166 167 151 160 172 185 188 201 212 216 245 196 160 163 151 165 179 159 159 181 179 158 167 175 158 156 154 140 142 145 145 150 151 151 153 153 153 152 155 162 163 162 160 163 165 164 164 165 169 166 156 154 155 155 158 164 170 164 160 160 162 162 151 134
187 204 225 218 221 234 237 231 233 249 260 268 280 130 146 153 157 174 143 142 153 120 149 164 147 182 188 193 190 174 219 230 301 275 182 174 158 169 181 159 162 186 171 155 167 169 152 150 148 141 143 144 143 146 148 150 151 150 152 155 158 163 165 166 166 167 168 167 165 164 165 161 151 153 158 160 163 170 172 165 161 163 167 165 156 144
182 222 238 230 226 229 243 250 243 243 247 259 275 158 149 134 122 119 120 137 142 98 164 186 170 178 121 356 5 36 341 293 331 323 283 214 168 175 181 161 162 184 169 155 166 166 152 148 148 146 142 141 144 146 146 149 153 153 155 158 161 165 167 168 168 170 172 170 169 167 165 160 155 158 163 165 169 174 171 165 163 166 171 169 164 152
184 210 223 237 239 224 237 256 258 256 251 251 268 245 127 138 130 118 141 149 144 133 168 172 161 58 82 71 24 64 301 302 315 320 321 310 294 231 196 165 163 181 169 157 166 165 150 147 152 151 143 143 147 148 149 151 155 159 161 161 164 168 168 169 172 174 173 171 171 168 164 160 160 166 165 162 167 174 171 166 165 175 179 172 171 163
231 213 199 221 242 234 231 238 249 258 252 237 246 228 134 146 140 125 146 151 136 136 151 140 88 332 139 147 178 171 248 284 308 313 300 280 289 301 247 173 165 175 168 160 166 164 150 149 155 155 149 148 150 152 156 157 158 163 166 165 167 170 170 173 175 175 174 173 171 165 162 162 164 168 162 155 159 168 173 169 171 186 188 173 170 163
246 241 193 195 223 239 237 231 239 244 253 254 243 228 147 138 133 129 139 142 133 163 163 145 112 278 184 164 179 177 208 237 268 288 273 264 269 294 285 192 171 167 164 163 165 163 154 150 156 158 154 153 154 156 159 163 164 167 168 168 169 172 175 177 175 173 172 171 170 167 165 166 164 163 163 160 161 166 172 172 180 195 187 170 167 159
236 273 242 198 208 219 229 237 236 230 237 237 230 224 139 132 139 146 149 151 154 181 178 175 158 114 189 190 176 168 194 217 218 247 253 249 250 261 271 222 182 165 162 165 167 165 158 153 157 161 158 156 158 160 162 165 168 169 170 169 172 176 177 177 175 174 171 166 168 170 168 169 167 164 166 167 167 172 176 175 185 196 179 168 172 169
193 258 281 271 232 207 211 229 234 227 225 239 247 175 131 137 148 159 168 177 165 138 163 188 192 104 187 211 171 165 185 204 203 227 243 239 239 244 254 241 197 172 164 168 173 170 162 157 160 165 163 160 159 163 166 166 167 170 171 171 174 176 175 174 176 178 176 169 168 169 165 165 168 167 167 167 168 175 181 180 183 185 171 170 179 180
187 217 258 267 258 226 221 223 223 219 224 264 299 323 144 155 163 167 180 193 152 116 135 196 202 141 168 177 157 167 185 199 200 208 219 220 225 230 241 244 217 185 167 170 175 174 167 159 163 168 167 163 161 167 171 167 167 170 172 173 175 175 174 175 178 179 179 174 170 167 161 162 169 171 170 171 171 171 174 176 178 175 169 176 186 184
228 274 275 256 231 216 251 243 208 204 243 276 291 290 277 223 183 171 184 184 144 132 165 196 197 174 164 166 157 170 198 207 198 199 205 206 210 214 226 231 227 205 172 172 176 176 170 162 165 170 171 168 166 170 172 166 166 169 170 173 176 176 176 178 181 181 179 175 171 168 166 166 170 173 174 175 177 173 166 168 173 177 176 180 185 183
267 282 286 270 213 292 312 301 223 215 258 307 299 282 287 287 311 149 187 141 123 210 202 189 189 181 168 189 178 183 203 202 189 188 196 199 202 204 216 224 224 212 176 172 175 176 170 163 165 170 174 176 171 171 170 163 164 167 168 172 174 177 179 179 181 181 178 176 174 175 177 175 173 174 176 175 178 179 171 168 172 179 182 182 181 182
255 265 243 113 57 338 314 294 250 215 220 244 278 290 340 336 358 8 346 65 74 284 252 187 184 184 185 199 204 210 210 193 184 187 189 191 195 197 208 218 222 216 179 171 170 175 171 164 166 168 177 183 172 169 168 161 163 165 167 171 173 176 178 178 179 178 178 179 176 178 183 184 181 180 178 176 177 178 174 172 173 176 180 184 184 182
251 263 182 138 91 331 292 295 296 265 215 203 233 227 38 339 348 7 341 16 154 236 262 214 175 183 234 202 199 209 211 191 188 190 185 184 187 192 204 209 216 217 186 173 164 175 179 169 169 168 178 185 170 168 167 159 162 165 166 172 173 175 178 177 178 178 178 180 178 179 185 186 185 182 181 180 177 177 177 176 177 179 180 187 187 185
280 248 192 146 123 205 239 254 262 261 203 191 215 143 114 271 270 262 223 217 227 226 249 232 167 162 260 231 191 199 201 189 187 189 180 180 184 190 199 202 208 211 198 186 170 177 185 175 173 171 177 178 165 168 167 157 161 165 167 172 174 175 178 178 179 179 179 181 180 182 184 182 182 180 180 181 177 176 178 180 182 185 187 193 193 190
317 292 221 188 151 169 212 235 244 278 333 233 234 140 148 189 192 239 211 214 244 259 257 229 181 152 204 233 194 186 186 175 177 183 175 177 182 186 197 204 211 212 206 206 181 181 185 176 174 173 174 171 167 172 168 158 161 165 167 173 175 176 178 179 180 180 181 182 180 183 183 179 179 181 181 182 181 178 180 185 188 191 193 199 200 198
327 315 291 276 190 167 201 232 241 281 308 263 218 131 167 216 199 250 265 266 253 288 295 220 134 82 172 278 134 151 165 168 167 171 170 177 180 180 192 204 212 215 210 216 195 186 186 177 172 174 176 172 172 175 168 162 163 164 168 172 175 179 179 179 181 181 182 182 181 184 186 182 180 183 182 182 184 184 184 190 194 195 197 199 202 204
359 306 308 297 211 178 194 231 225 219 257 266 183 157 202 225 246 268 274 302 305 246 244 130 94 358 64 2 42 146 162 165 161 166 171 179 181 181 191 198 204 211 209 213 210 198 189 179 174 176 179 177 177 176 167 167 169 167 169 172 174 179 180 180 182 181 183 183 183 183 185 186 185 184 184 184 188 189 188 193 197 195 195 196 202 205
33 287 299 299 246 176 169 225 245 227 238 258 162 179 214 222 288 294 293 325 328 276 242 130 133 166 152 298 234 168 163 162 164 170 174 177 181 186 192 195 198 202 204 208 212 216 197 182 175 173 177 178 178 174 166 168 172 170 171 173 174 177 180 182 182 182 184 183 184 185 184 187 189 188 190 191 192 191 190 196 199 198 195 196 201 202
356 299 292 312 331 337 173 198 259 266 264 266 353 324 268 164 254 233 145 280 283 283 320 74 108 142 110 208 204 180 165 159 164 170 174 178 182 186 189 192 195 194 197 202 202 212 207 185 175 169 172 174 174 173 167 167 171 170 171 174 175 177 180 183 183 183 185 184 184 187 187 189 190 189 192 193 192 192 194 197 196 196 195 195 199 200
341 325 291 326 351 341 312 63 48 310 301 311 345 312 273 184 196 186 175 206 215 247 303 35 5 345 353 325 247 195 174 157 164 172 175 179 180 183 184 186 191 191 194 195 189 193 196 184 175 169 168 170 172 172 165 165 167 168 170 173 175 178 179 181 183 184 186 186 185 188 190 192 192 191 194 195 193 193 195 194 192 193 194 195 199 199
6 10 330 330 344 340 346 7 344 329 321 292 209 267 269 258 184 183 201 199 200 241 183 124 271 221 321 326 336 298 173 151 160 164 168 178 179 182 185 185 190 190 192 191 179 175 172 174 174 170 168 169 173 173 164 162 166 167 170 173 175 179 180 181 184 185 187 187 186 188 190 193 194 193 197 200 198 195 193 193 194 196 197 199 202 202
12 359 337 322 327 329 339 332 319 319 312 288 212 222 245 260 197 171 251 234 204 235 215 148 141 160 329 336 348 354 24 45 52 95 157 179 170 172 180 183 186 187 188 183 168 149 90 36 93 159 167 168 170 171 163 160 164 166 169 173 176 180 182 183 185 185 186 187 188 190 189 192 196 196 199 203 199 195 197 198 196 196 199 201 205 207
349 296 315 313 306 316 327 320 309 306 307 305 301 255 228 235 230 158 187 236 216 234 236 154 122 160 330 347 327 333 18 36 34 31 25 85 94 58 69 151 174 173 158 136 131 106 72 32 15 24 144 174 165 164 163 160 163 167 170 175 178 181 183 186 187 185 185 188 190 190 188 190 195 196 199 203 202 200 204 207 202 199 201 200 201 204
343 336 341 320 301 320 334 323 313 320 334 332 315 294 255 255 277 235 211 227 185 281 261 108 91 274 328 336 309 333 11 29 42 34 30 38 23 20 40 36 44 68 78 96 117 114 108 112 90 68 283 204 160 155 160 158 162 168 172 176 180 181 183 188 190 186 184 188 191 191 188 189 194 196 199 203 205 204 207 210 206 201 203 202 200 203
332 325 358 347 328 344 350 336 331 345 0 353 314 310 307 322 318 294 277 21 41 1 41 92 90 273 328 321 314 353 20 34 39 26 31 42 23 36 72 72 84 109 133 127 107 112 131 162 172 170 206 198 154 151 158 156 159 166 171 175 179 181 184 189 193 188 186 188 191 190 188 190 194 196 198 203 208 208 206 208 205 201 205 207 204 208
315 306 359 19 349 339 304 296 307 319 330 315 309 321 341 5 354 323 300 64 53 10 38 85 132 162 34 333 328 350 23 40 38 22 30 46 43 55 91 126 117 103 102 99 81 74 119 174 182 190 202 175 148 153 161 158 158 162 166 169 172 177 183 189 193 189 187 189 191 190 190 193 196 197 199 203 207 210 209 208 207 205 205 204 201 204
325 297 288 242 219 219 206 223 252 262 285 307 312 328 359 14 3 354 14 52 101 84 47 87 133 124 66 333 322 325 355 22 23 26 30 37 44 46 30 61 73 73 79 94 108 116 131 199 183 184 182 162 152 158 162 161 161 162 166 167 167 170 177 183 184 182 186 188 190 192 193 194 196 199 202 205 207 210 211 212 212 209 205 202 200 202
81 275 278 261 238 230 210 212 244 270 303 317 312 326 356 11 358 359 23 21 37 74 35 337 130 122 138 212 281 293 301 30 31 28 33 40 33 9 360 27 67 89 93 87 88 87 54 340 278 184 168 160 155 153 151 152 152 154 160 165 170 171 172 177 175 170 178 185 188 193 197 200 201 201 204 207 209 212 213 215 217 215 209 204 203 205
90 276 309 315 301 292 264 237 239 257 307 313 308 327 352 3 355 1 32 35 42 68 54 325 48 75 89 174 255 273 295 38 38 21 30 55 44 19 14 13 25 77 105 125 118 79 39 10 337 330 17 138 143 142 146 154 157 159 163 167 174 175 171 175 176 169 168 175 181 187 195 206 211 216 218 211 208 211 214 219 221 215 207 203 204 208
85 323 328 316 304 308 308 294 260 210 239 295 308 339 356 6 17 22 32 42 52 66 77 60 46 56 59 24 316 298 328 15 28 11 25 54 58 49 33 10 5 28 56 110 126 115 65 34 19 9 19 34 63 95 108 126 144 153 162 166 166 166 165 169 174 177 177 171 165 177 270 1 31 188 213 201 188 196 206 216 215 186 176 188 199 205
115 339 328 312 306 303 298 298 287 229 198 251 333 2 2 13 35 36 24 28 40 51 69 74 52 41 49 46 37 4 358 8 8 360 11 54 76 77 66 36 15 14 15 13 20 81 94 54 31 45 59 50 40 40 39 30 39 83 114 128 129 131 140 150 148 157 178 181 178 195 216 297 352 168 186 182 173 179 188 197 197 179 168 179 192 199
188 316 334 332 338 305 288 290 283 261 197 94 31 15 6 14 47 56 36 30 36 43 60 65 52 351 349 49 82 71 41 28 3 342 335 10 64 72 74 78 72 51 41 33 18 32 76 78 38 41 70 74 67 58 50 38 27 29 36 43 67 99 119 137 144 137 130 95 243 208 206 215 229 228 217 208 202 191 190 193 188 181 180 186 193 200
264 313 339 319 326 298 294 302 296 286 100 93 31 23 24 20 47 72 64 48 43 49 61 63 85 249 342 46 84 80 62 47 20 345 327 345 41 58 48 65 79 75 66 60 47 44 66 75 53 41 56 66 67 64 61 59 53 52 60 70 310 269 237 238 217 182 154 139 222 229 221 220 227 229 221 211 208 202 199 202 200 194 192 194 197 198
330 349 298 237 242 292 301 313 329 11 89 155 265 78 77 51 56 66 60 47 44 52 87 115 137 116 58 61 76 76 67 52 33 17 357 352 22 58 55 60 69 70 68 65 56 50 60 70 64 57 62 67 66 66 64 61 57 56 65 79 73 67 208 229 217 182 178 177 188 207 218 225 232 234 231 227 229 228 221 215 211 206 203 204 203 198
19 357 322 278 234 300 318 338 2 26 64 299 324 15 55 78 88 81 59 42 40 43 55 67 75 86 80 68 66 74 74 57 39 30 21 16 22 34 51 62 57 50 55 59 56 52 55 68 77 72 73 78 79 78 77 78 80 76 74 77 76 74 82 111 140 149 161 170 183 195 201 211 223 231 235 238 240 241 239 234 229 226 224 222 218 220
53 3 327 310 282 224 7 8 22 249 306 350 11 10 15 42 78 81 55 29 20 27 39 45 56 71 75 58 30 46 69 56 38 27 24 33 42 41 47 57 50 38 36 39 49 58 55 61 73 76 78 84 86 87 88 89 89 88 86 86 86 86 92 108 120 127 143 150 165 185 194 204 216 223 228 233 237 237 236 236 235 234 238 239 236 238
96 51 23 342 301 144 113 111 145 137 337 353 9 349 351 4 1 54 87 28 357 18 40 45 56 69 77 73 28 2 40 58 43 20 7 16 50 64 62 64 61 52 43 39 42 48 49 48 58 70 77 81 85 88 90 89 87 86 84 79 78 82 86 86 84 82 89 112 133 150 165 186 211 224 231 236 239 239 238 239 240 239 241 245 246 246
131 149 138 111 331 337 127 146 100 105 295 296 311 316 333 359 356 27 99 37 344 21 48 52 61 77 92 101 98 76 59 55 48 22 356 352 22 65 67 68 71 65 55 51 51 52 52 48 50 59 63 63 70 81 88 88 85 81 76 70 66 67 68 67 68 71 74 84 103 116 116 124 156 203 228 236 239 244 246 247 250 251 249 249 249 246
159 174 150 132 248 258 184 143 96 123 218 250 276 302 337 4 350 4 76 23 338 24 56 58 61 76 95 109 118 126 109 86 70 39 356 350 22 63 65 61 70 72 66 63 62 62 61 57 55 59 61 57 56 63 73 78 79 78 74 69 63 59 56 55 57 61 65 69 79 88 89 91 98 99 96 103 134 185 264 263 258 255 248 242 238 231
333 184 148 169 253 273 271 87 85 99 241 268 278 307 345 356 350 20 68 348 339 25 54 58 61 77 107 126 121 104 110 135 152 150 149 176 86 94 95 85 78 79 74 68 66 67 65 59 54 52 53 53 55 60 65 69 70 71 71 68 63 58 52 49 50 54 58 58 59 65 69 68 66 67 73 75 74 96 127 138 159 193 207 213 216 216
325 340 79 347 319 356 41 64 87 99 298 288 307 341 345 336 16 57 121 235 343 38 47 52 65 81 97 118 126 92 72 117 132 138 147 158 113 98 101 102 95 89 82 75 72 72 69 64 59 53 48 49 53 56 61 65 64 62 64 68 68 64 60 57 54 53 57 57 54 54 59 61 57 52 57 63 52 69 122 122 132 145 150 161 173 184
331 342 16 18 357 13 76 95 109 107 325 307 328 3 0 0 79 91 189 191 98 70 54 44 63 84 79 82 101 105 106 112 120 129 128 111 93 83 83 89 93 92 91 87 80 77 75 71 67 63 57 56 59 59 62 65 61 56 56 57 61 65 68 66 60 53 54 59 60 59 58 56 54 53 57 62 65 73 75 73 125 136 122 132 139 135
355 3 27 29 350 10 83 76 90 113 351 350 17 27 16 41 144 154 116 95 85 86 75 38 40 84 95 98 108 119 129 129 125 129 125 109 104 98 88 87 87 87 92 92 85 83 83 77 72 70 67 68 71 71 73 74 70 65 57 48 47 56 62 63 64 59 54 53 57 59 57 50 46 50 54 53 58 65 59 53 75 110 126 142 141 130
358 22 90 68 341 32 74 72 123 136 50 25 49 80 69 90 120 108 92 90 84 89 89 44 33 74 102 116 124 132 139 134 129 132 127 115 111 107 102 99 96 94 95 95 93 96 95 90 86 85 82 79 77 77 80 80 77 74 66 56 55 60 60 61 65 63 56 50 46 45 47 44 45 51 53 47 46 47 44 44 56 69 82 119 149 145
276 189 137 92 40 71 107 143 152 131 97 60 62 82 82 76 73 71 78 91 91 87 100 87 65 78 103 118 129 138 143 143 145 140 128 123 124 119 115 111 109 108 107 104 104 107 106 103 102 99 93 89 88 89 90 87 80 72 65 64 68 70 69 64 57 54 57 56 48 44 43 42 47 55 57 55 52 50 48 48 50 51 55 64 84 130
120 141 129 103 87 76 79 107 125 113 96 81 68 64 67 68 69 70 68 72 79 74 75 93 97 96 103 112 124 135 143 147 146 139 135 134 128 123 126 128 125 122 121 118 116 117 117 116 113 107 101 97 97 100 102 102 99 92 85 86 86 83 83 75 63 58 56 48 42 42 35 28 38 51 53 56 60 61 55 47 40 38 41 46 54 71
9 30 64 102 106 97 67 66 97 100 93 89 81 71 69 65 63 74 83 87 92 80 69 84 105 106 90 89 111 132 142 134 120 120 132 137 135 137 144 152 152 145 140 135 131 126 123 122 117 114 111 106 106 109 109 108 110 113 114 114 105 94 91 86 77 70 61 45 36 33 30 33 50 54 46 50 60 64 59 49 38 34 33 32 40 56
316 14 90 83 83 104 105 73 83 88 87 94 96 88 83 75 62 65 82 93 99 98 82 77 95 114 113 107 121 134 137 129 119 118 126 137 147 151 156 164 163 153 152 156 151 141 133 126 123 122 117 111 114 119 117 112 113 118 121 119 114 109 103 93 82 74 71 68 54 40 40 52 63 55 39 36 35 36 43 42 37 37 36 32 35 50
123 102 119 110 94 96 102 85 85 82 70 72 87 88 91 93 74 56 63 80 90 98 94 70 66 92 119 134 138 134 131 138 146 145 141 150 157 155 159 168 170 165 171 178 169 158 146 132 128 132 127 118 121 124 123 119 117 119 122 120 121 123 116 104 99 92 86 85 75 58 51 51 52 56 64 65 51 26 24 33 32 32 36 36 38 47
95 35 117 117 118 138 155 121 103 108 108 98 92 87 90 97 87 63 62 74 79 87 101 95 69 73 95 124 142 144 140 147 164 168 160 158 160 160 164 172 171 170 177 182 174 163 151 139 137 141 141 143 143 135 131 129 126 126 125 120 122 126 112 106 118 128 124 107 86 76 70 58 52 60 74 78 73 67 62 60 55 47 47 49 49 52
85 176 114 110 124 162 162 133 115 120 138 147 146 139 121 109 105 89 71 71 77 83 96 109 104 99 112 126 139 145 147 156 171 175 162 142 159 165 171 177 178 179 186 189 180 162 146 138 142 142 139 145 152 145 143 141 138 142 143 121 95 89 94 106 110 107 115 128 98 80 81 73 59 59 65 70 74 77 82 89 88 77 71 70 69 68
Height
761 776 782 782 781 774 769 764 763 762 761 763 762 773 789 795 797 791 787 787 784 798 807 803 807 807 806 804 799 796 795 797 798 796 796 796 797 798 799 800 800 801 800 798 801 802 804 806 808 811 813 816 818 820 823 825 827 829 830 832 834 836 837 839 840 841 842 843 844 845 847 848 849 850 852 853 854 854 855 857 858 859 860 861 862 863
763 781 782 772 769 764 760 757 756 759 760 759 762 773 785 788 791 785 784 787 783 797 809 803 807 809 806 806 801 799 800 802 802 801 799 796 797 797 798 799 799 799 797 796 800 801 803 806 808 811 813 815 818 820 823 825 827 829 830 832 834 836 838 839 840 841 842 843 844 845 846 848 849 850 851 852 853 854 855 856 858 858 860 861 861 862
775 781 773 761 757 756 756 754 754 758 758 760 761 769 782 784 788 790 787 787 786 798 810 808 810 812 809 810 809 809 808 804 803 803 801 799 798 797 797 798 798 798 798 797 799 800 802 805 807 811 812 815 818 820 823 825 827 829 831 832 834 836 838 839 840 841 843 844 845 846 847 848 849 850 851 852 852 853 854 856 857 858 859 860 861 862
783 776 762 754 752 755 758 755 755 758 757 761 761 767 783 784 789 802 799 792 790 794 804 808 812 813 813 815 815 814 810 805 803 803 801 800 800 799 796 795 795 797 799 798 798 799 800 804 806 809 812 814 817 820 823 825 827 829 830 832 833 836 838 839 840 841 843 844 845 846 847 848 849 850 851 851 852 853 854 856 857 857 858 859 860 861
773 760 749 750 752 754 760 758 758 763 763 760 757 763 779 780 782 794 795 794 795 795 797 806 821 821 815 822 821 814 811 808 806 804 803 800 798 798 796 792 792 794 796 797 798 798 799 802 805 808 812 814 816 819 822 824 826 828 830 831 833 835 837 839 840 841 842 843 845 845 847 848 849 850 851 851 852 853 854 855 856 857 858 859 860 860
763 747 742 751 754 753 759 761 757 762 766 764 755 752 762 770 777 786 790 795 808 813 800 802 829 832 816 819 823 816 813 812 809 807 806 802 797 797 798 794 791 792 793 794 796 797 797 801 804 807 810 813 815 817 821 823 825 828 829 831 833 835 837 838 839 841 841 842 844 845 846 847 848 849 850 851 852 853 854 855 856 857 858 858 859 860
754 743 741 751 755 754 759 761 753 753 766 771 753 742 751 763 776 787 789 794 810 814 797 790 815 833 824 817 816 815 816 813 811 810 806 803 799 798 798 795 791 791 792 792 794 795 796 799 802 805 808 811 814 816 819 822 824 827 829 830 833 834 836 838 839 840 841 842 843 845 846 847 847 848 849 851 852 853 854 855 856 857 858 859 859 860
749 747 748 750 752 756 760 761 751 746 764 768 744 738 754 765 774 783 783 787 790 791 794 790 796 820 829 817 808 810 817 817 813 812 808 803 800 798 797 794 791 790 790 792 793 794 795 798 800 803 807 809 812 815 818 820 822 825 827 830 832 834 835 837 838 839 840 842 843 844 846 847 848 848 849 851 852 853 853 854 855 856 857 858 859 860
744 751 754 752 755 759 757 753 744 743 758 755 737 738 750 755 763 771 775 780 777 788 812 802 790 814 827 812 805 809 814 817 813 809 807 803 800 798 795 792 789 788 788 789 791 793 793 796 799 802 805 808 810 813 816 818 820 823 826 829 831 832 834 836 837 838 840 841 843 844 845 846 848 848 849 850 851 853 853 854 855 856 857 858 859 860
744 746 746 747 754 756 750 742 736 741 751 743 735 740 742 744 752 760 770 777 779 796 818 805 789 810 826 815 810 815 814 811 806 804 802 800 798 796 793 791 789 786 786 787 788 790 791 794 797 800 803 806 809 811 814 816 819 822 825 827 830 831 833 835 836 838 839 841 842 843 845 846 847 848 849 850 851 852 853 853 855 856 856 857 858 859
742 737 735 739 745 744 741 738 733 737 741 738 741 747 748 749 751 757 762 767 784 798 798 792 784 795 819 820 809 806 799 792 794 799 799 796 795 794 792 790 788 786 785 785 786 787 790 793 795 799 802 804 807 809 812 814 817 820 823 825 828 830 832 833 835 837 838 840 841 843 844 845 846 847 848 849 850 851 852 853 854 855 856 857 858 858
744 743 740 736 735 736 741 743 736 733 735 741 751 756 763 765 760 768 768 768 795 803 781 774 777 785 808 813 798 788 778 775 782 788 791 793 793 792 790 788 786 785 784 783 785 787 788 791 794 797 800 802 805 807 809 812 815 818 821 824 827 829 831 832 834 836 837 839 841 842 843 844 845 846 847 848 849 851 852 853 854 855 856 856 857 858
751 749 743 738 736 736 748 755 748 743 741 748 757 763 780 790 787 794 794 788 800 796 769 760 771 785 795 788 779 777 773 771 772 774 780 785 788 789 787 786 784 783 783 782 783 786 787 789 792 794 797 800 802 804 807 810 813 816 819 822 824 827 829 831 833 835 836 838 840 841 842 843 845 846 847 848 849 850 851 852 853 854 855 856 857 858
766 754 743 746 746 738 748 762 765 759 751 755 762 769 787 801 810 815 807 799 797 784 763 751 762 787 790 774 766 768 767 766 765 767 773 777 782 785 783 782 782 781 782 781 781 784 785 786 789 792 795 798 800 802 805 808 811 814 817 820 823 825 827 830 832 833 835 837 838 840 841 842 844 845 846 848 848 850 851 852 853 854 854 855 856 857
786 779 756 752 752 743 746 753 757 756 753 755 752 759 777 787 802 811 803 800 797 783 767 756 767 789 790 772 759 758 759 760 763 765 768 773 777 780 781 781 781 781 781 781 780 781 783 784 786 789 793 796 798 801 803 806 809 812 815 819 821 823 826 828 830 832 834 835 837 839 840 842 843 844 845 847 848 849 851 852 853 854 854 855 855 856
785 784 755 741 740 740 746 742 739 751 762 755 744 757 773 769 777 790 786 781 780 781 776 771 779 782 773 762 753 754 759 758 761 765 767 773 774 776 781 781 780 781 780 780 779 779 780 782 784 787 790 793 796 799 801 804 807 810 813 817 820 822 824 826 828 830 832 834 836 837 839 841 842 843 845 846 848 849 850 851 852 853 854 855 855 856
786 783 752 740 739 735 741 739 734 749 764 757 752 763 761 749 759 780 783 769 769 787 786 779 789 784 773 771 759 756 763 761 762 766 767 771 772 775 779 778 779 779 779 778 778 777 778 779 782 784 788 791 793 796 799 802 805 808 811 815 818 821 823 825 827 829 831 833 835 836 838 840 841 842 843 845 846 848 849 850 851 852 853 854 855 855
780 784 758 746 750 737 730 736 735 736 746 756 764 760 748 747 756 771 789 788 787 798 784 776 794 795 790 789 770 760 767 765 764 766 766 769 770 773 775 774 776 776 776 777 775 776 776 776 779 782 785 788 791 793 796 800 803 806 809 812 815 819 821 824 825 827 830 831 833 835 836 838 840 841 842 844 845 846 848 849 850 851 852 853 854 854
769 786 769 747 753 744 727 739 749 739 734 745 754 746 750 772 777 774 789 798 801 803 791 789 798 793 791 790 774 768 769 766 765 764 766 768 768 770 771 771 773 773 775 776 774 775 775 774 777 779 782 785 788 792 794 798 802 804 808 810 813 816 819 822 824 826 828 829 831 833 835 837 838 840 842 843 844 845 846 847 848 849 850 851 853 853
765 786 783 755 750 751 742 749 764 759 742 739 745 746 749 764 771 770 775 781 792 800 802 813 817 804 795 786 774 771 766 764 766 764 764 766 765 767 768 769 771 771 773 773 774 774 773 773 775 776 781 783 786 790 792 796 800 802 806 809 811 815 817 820 822 824 826 828 829 831 833 835 837 839 840 841 843 844 844 846 847 848 849 850 851 852
767 783 792 772 756 760 764 763 766 767 760 754 758 762 758 754 755 762 765 763 774 789 794 808 822 813 796 783 775 771 764 762 765 765 766 765 764 765 765 766 768 768 770 771 772 774 773 774 774 775 779 781 785 789 791 794 797 800 804 807 809 813 815 818 820 822 824 826 828 830 831 834 835 837 839 840 841 842 843 844 845 846 847 848 850 851
777 783 792 787 775 774 773 760 753 757 759 758 760 759 759 758 759 772 780 765 759 772 776 789 815 814 791 780 777 770 766 765 765 766 767 765 764 765 764 764 766 767 768 769 771 773 775 776 777 778 779 780 783 788 790 793 795 798 802 805 808 811 813 816 818 820 822 824 826 828 829 832 834 835 837 838 839 840 841 843 843 844 846 846 848 849
776 781 789 790 782 777 768 753 748 749 748 749 752 749 748 753 758 773 784 770 758 763 757 768 806 812 787 778 777 771 769 768 767 768 769 768 767 766 765 765 765 766 768 769 771 773 777 782 782 782 783 782 782 785 789 791 794 797 800 803 806 809 811 814 816 817 820 823 825 826 828 830 832 834 836 836 838 838 839 841 842 843 844 845 846 847
775 783 792 794 782 772 765 755 748 745 747 755 757 748 744 747 748 753 760 757 761 769 762 773 808 810 786 778 776 772 772 771 770 770 772 773 771 767 768 770 771 773 773 772 772 773 778 783 782 782 787 787 783 783 787 789 792 795 797 800 804 806 809 812 814 815 818 820 823 824 826 828 830 832 834 835 836 837 838 839 840 841 842 843 844 845
783 789 794 803 804 797 790 782 772 763 762 770 769 756 748 745 744 748 749 750 766 778 773 788 815 809 789 781 776 773 775 775 774 773 773 776 775 771 772 772 773 775 776 775 775 776 778 781 781 781 784 786 782 782 785 787 790 793 796 799 801 804 807 810 812 814 815 818 820 822 824 826 828 830 832 833 835 835 836 837 838 839 840 841 842 843
785 790 792 807 821 823 821 813 801 788 779 775 772 763 755 752 754 759 758 762 781 788 780 792 813 806 791 784 779 776 776 776 776 776 775 776 777 776 774 773 773 775 777 778 779 781 782 783 784 783 782 783 781 781 784 786 789 792 794 797 799 802 805 808 810 812 814 816 819 821 823 825 827 829 830 832 833 834 835 836 836 837 838 839 840 841
783 787 787 795 804 809 812 805 791 786 784 780 775 766 759 756 757 760 766 773 781 788 790 792 798 800 798 791 783 778 776 778 779 779 778 778 779 779 777 776 777 778 780 780 779 782 783 783 784 783 782 782 781 782 784 786 789 792 794 795 798 801 803 806 809 811 813 815 818 820 822 823 826 828 829 831 832 833 834 835 835 835 835 837 838 840
786 792 786 786 788 786 787 785 778 778 781 780 777 770 763 760 758 763 776 778 774 788 804 795 784 795 802 793 785 780 775 778 783 783 784 783 781 781 781 780 781 781 782 782 783 784 785 786 786 784 782 781 781 783 785 787 789 791 794 795 796 799 802 805 807 810 813 815 818 820 822 824 826 827 828 829 830 832 833 833 834 834 833 835 836 837
788 795 786 782 785 779 775 775 773 775 779 778 776 773 767 765 765 769 778 779 778 796 811 797 787 798 803 793 786 781 777 780 785 785 785 786 784 783 784 786 786 785 784 783 784 785 786 789 790 788 786 783 783 784 785 787 788 789 793 796 798 800 802 804 807 809 812 815 817 820 823 824 825 826 827 828 829 830 831 832 832 832 832 833 834 835
786 792 785 783 786 781 775 773 769 772 779 779 776 775 772 772 774 777 781 780 781 793 799 794 798 806 807 802 793 784 782 786 787 785 786 788 789 787 788 789 790 789 788 786 784 784 786 789 790 790 790 789 788 788 789 790 791 791 793 796 798 800 801 804 807 809 812 815 816 819 823 825 825 825 826 827 827 828 829 830 831 831 831 832 833 834
786 792 785 783 790 788 778 773 770 771 776 780 780 779 777 779 782 786 788 786 787 795 796 798 807 808 804 805 802 795 792 792 792 790 789 789 790 790 791 791 792 793 793 792 790 788 787 789 790 789 790 792 793 793 795 797 798 798 798 797 799 800 801 804 807 809 812 815 817 820 824 827 827 826 825 825 826 826 827 828 830 830 831 832 833 834
785 791 786 787 801 799 782 775 774 769 771 781 789 788 785 787 791 793 793 793 795 801 803 806 813 812 805 804 807 807 804 802 800 797 792 791 790 791 793 794 794 796 796 796 795 792 790 791 791 791 791 792 793 794 797 800 801 803 803 802 803 803 804 806 808 811 813 816 818 820 823 826 826 825 824 824 824 825 825 827 828 829 830 831 832 832
783 790 792 795 807 803 784 777 776 773 784 799 800 793 789 789 792 795 796 795 794 799 808 813 814 811 806 804 807 811 811 811 810 803 796 794 794 795 795 795 796 797 798 799 799 796 794 793 794 795 794 794 795 796 798 800 802 805 806 805 804 803 805 807 810 813 815 817 820 821 822 825 825 824 824 823 823 824 824 825 827 828 829 830 831 831
784 789 791 794 804 804 789 779 781 792 810 812 795 783 785 789 794 801 803 799 795 796 802 807 806 806 807 807 808 811 812 813 813 808 801 796 796 798 797 795 796 797 797 799 798 796 796 796 798 800 799 798 799 799 799 800 803 807 808 807 806 804 805 808 810 813 816 818 822 824 826 826 825 823 823 822 822 823 823 824 825 826 827 828 829 830
787 790 792 792 798 802 793 790 806 821 817 801 786 779 780 784 791 799 802 799 796 797 798 800 803 806 808 808 807 810 811 811 811 810 805 801 799 800 800 798 796 796 797 798 797 796 797 798 800 801 801 802 803 802 803 804 805 807 808 807 807 807 808 809 811 813 816 819 823 826 826 825 823 822 821 821 821 822 822 823 823 824 825 826 827 828
788 792 795 794 795 800 804 810 825 827 809 792 789 786 781 784 789 796 807 806 799 797 799 800 804 806 807 809 808 809 811 812 813 812 809 806 803 802 803 803 801 799 800 799 798 798 799 800 800 800 801 803 804 804 806 806 806 807 806 806 807 808 809 811 812 814 816 819 822 823 822 821 820 820 820 820 821 821 821 822 822 822 823 824 825 826
784 791 797 800 798 800 811 815 814 819 816 806 801 796 790 790 790 794 811 815 803 798 800 803 806 809 809 811 811 809 810 815 819 818 813 810 808 805 805 806 805 803 802 801 801 801 802 804 803 803 803 804 804 805 807 807 807 806 806 807 807 808 809 810 812 815 817 819 820 820 819 818 818 818 819 820 820 821 821 821 821 821 822 822 823 824
780 786 794 804 801 797 808 815 814 825 831 818 808 800 790 788 786 786 805 818 808 801 804 806 809 811 810 811 812 810 811 819 827 826 820 816 813 810 809 809 806 806 806 806 806 806 807 809 809 807 807 806 806 807 808 808 808 807 807 808 808 809 809 810 813 815 817 818 818 817 817 817 816 817 818 818 819 820 820 820 820 820 820 821 822 822
780 782 786 799 804 799 805 816 821 830 830 817 808 799 789 789 786 785 808 826 815 805 806 808 810 813 812 812 811 809 812 824 832 830 823 820 818 815 815 813 811 810 811 810 811 811 812 813 812 811 811 810 810 810 809 809 808 807 808 809 809 810 810 812 815 817 817 818 817 817 817 816 816 817 817 818 819 819 819 819 819 819 819 820 820 821
785 786 789 800 806 801 803 814 822 827 823 811 804 798 791 789 786 797 829 838 818 807 809 808 810 813 812 812 812 810 813 820 825 824 820 819 818 817 817 817 815 814 814 813 813 813 813 813 812 812 812 813 813 812 810 810 809 808 810 810 811 812 813 816 818 818 818 818 817 817 817 817 817 817 818 818 818 817 817 817 817 817 818 818 818 819
793 793 795 802 805 803 809 820 826 825 816 804 800 797 790 789 799 822 842 833 813 810 811 807 809 812 811 812 813 813 814 814 815 817 818 817 816 816 816 817 816 816 816 816 816 815 814 814 813 813 814 814 814 813 812 811 810 811 813 814 815 817 817 818 819 819 819 819 818 819 818 818 819 819 819 819 818 817 817 817 817 817 817 817 817 818
803 802 800 804 807 807 811 820 828 828 814 800 799 795 790 801 823 832 825 813 810 812 810 807 809 810 810 813 814 815 816 814 814 817 818 818 818 817 817 817 817 817 817 817 817 816 816 816 816 816 816 816 816 815 815 815 815 817 818 818 820 821 821 820 820 821 821 820 820 820 820 820 821 821 820 819 819 818 818 817 817 818 817 817 817 818
805 808 809 809 808 808 813 822 834 835 815 797 799 801 800 812 823 817 808 808 810 809 808 809 809 809 812 814 814 815 817 816 817 819 818 819 819 818 819 819 818 819 819 818 819 819 818 819 819 820 820 820 819 819 818 818 820 821 822 822 823 823 823 822 822 822 822 822 822 822 821 822 822 822 822 821 820 820 819 818 818 818 817 817 817 818
802 806 812 811 805 810 823 828 827 822 809 797 802 808 807 807 807 804 807 811 809 807 810 811 809 809 811 813 814 816 817 818 819 820 820 821 821 820 821 821 820 821 821 820 821 820 820 821 822 822 823 822 822 822 821 821 822 823 824 825 825 825 825 824 824 823 823 824 823 823 823 823 823 823 823 822 822 821 821 820 819 818 818 818 818 818
799 797 802 805 802 805 814 815 808 804 801 799 801 804 803 803 802 802 806 808 808 809 809 809 810 811 810 812 814 816 817 819 820 820 822 823 823 822 823 822 822 823 823 822 823 823 823 823 823 823 823 823 823 823 823 823 824 825 826 826 826 825 825 824 824 824 825 825 825 825 825 824 824 824 824 823 823 823 822 822 821 820 820 819 819 819
792 788 792 799 801 800 801 801 799 800 802 801 801 802 802 803 803 803 805 807 808 808 807 808 811 810 809 812 814 815 817 818 819 821 822 823 824 825 825 825 824 824 824 824 824 824 824 825 825 824 824 823 823 823 823 824 825 825 827 827 827 826 825 825 825 825 826 827 827 826 826 826 825 825 824 824 825 825 824 823 823 823 823 822 821 820
790 789 792 796 801 807 809 804 799 801 803 803 803 804 803 804 804 805 806 808 807 807 807 808 809 809 810 812 813 815 817 817 818 820 822 823 825 826 825 826 826 825 825 825 824 825 825 825 825 825 824 824 824 824 824 825 825 826 827 827 827 826 825 825 825 825 826 827 827 827 827 827 826 826 825 825 826 826 825 825 824 825 825 825 825 823
793 791 795 798 802 808 811 805 799 801 803 802 804 806 805 806 806 805 805 807 807 807 808 808 808 810 811 812 813 815 816 816 818 820 821 822 824 825 825 826 826 826 826 825 825 825 825 825 825 825 825 825 825 825 826 826 826 826 827 827 827 827 826 826 826 826 826 827 827 827 828 828 828 827 826 826 826 826 826 826 826 826 827 829 829 827
790 792 795 799 805 809 808 804 802 806 808 805 805 806 805 806 806 806 806 807 807 808 809 809 809 810 811 812 814 814 816 817 818 818 820 822 823 823 825 825 825 826 827 827 827 827 826 826 826 826 827 827 827 827 827 827 828 828 828 827 827 827 826 826 826 827 827 827 827 828 828 829 830 829 828 827 827 827 827 828 828 827 828 830 830 829
792 796 795 800 810 815 810 805 804 810 813 810 807 806 806 805 806 807 807 808 808 809 810 810 811 811 811 812 813 814 816 817 817 818 820 820 821 822 823 824 825 826 827 828 828 829 828 828 828 829 829 829 828 828 829 828 829 830 830 830 829 829 828 827 826 827 828 828 828 827 828 829 831 831 830 829 829 829 829 830 831 830 831 831 830 830
793 795 794 799 808 809 805 802 802 806 810 808 805 805 805 805 806 808 809 809 810 810 809 811 812 812 812 813 813 814 815 816 817 818 818 819 820 821 822 823 825 825 826 828 828 829 829 830 830 831 831 831 831 830 830 830 830 831 831 832 832 831 830 828 827 827 827 828 829 828 828 829 831 833 833 831 830 830 831 832 833 833 833 832 831 832